ELEKTRO-L 2

Last updated on Wed Sep 17 2025 00:02:22 GMT+0000 (Coordinated Universal Time)

1 41105U 15074A 25259.29534662 -.00000134 00000+0 00000+0 0 9995 2 41105 6.0000 73.8856 0002635 172.5247 200.9193 1.00270936 35763
UTC large
Height (km)
Speed (km/s)
/
Latitude / Longitude
Inclination (degrees)
Orbital Period (minutes)
Azimuth
Elevation
Range (km)
Doppler Factor

Next 0 passes for location: London (51.5072 / 0.1276)

Sorry there are no passes over London.